INTELSAT 14 (IS-14) (36097 NORAD) Tracking and Keplerian Element Data

This shows tracking and keplerian element data for the satellite.

Feedback or suggestion? Click here.




ElementValue
Catalog36097
NameINTELSAT 14 (IS-14)
Epoch Orbit3173
Epoch Day201.29721578
Epoch Year2018
RAAN49.1197
Inclination0.0149
Eccentricity0.0002538
Argument of Perigee67.1206
Mean Anonmoly243.7858
Mean Motion1.00269822
Decay Rate-2.9E-06
L11 36097U 09064A 18201.29721578 -.00000290 00000-0 00000-0 0 9999
L22 36097 0.0149 49.1197 0002538 67.1206 243.7858 1.00269822 31733

Live tracking and technical data element details for INTELSAT 14 (IS-14) (NORAD 36097). INTELSAT 14 (IS-14) can be tracked NOW for your location showing map with azimuth and elevation plus other details from your city location.

Track the satellite on the map from your city or location and see movement details for azimuth, elevation, latitude, longitude, range, height, and movement on the map or in text.







IsCatalogInMostPopularTable: catalog: 36097, numindb: 47
Update: records affected: 1



GetName: 36097 INTELSAT 14 (IS-14)

Hit Count: updated at: Sat, 21 Jul 2018 07:51:35 GMT